AAL101 EGLL-KJFK

Flight info

Callsign AAL101
Flight time N/A
Altitude 24000
Route CPT5J CPT L9 DIDZA/N0479F360 L9 BIBPE DCT BUCGO DCT FELCA DCT NICXI DCT BAKUR DCT NEBIN/M084F370 DCT 5330N02000W 5230N03000W 51N040W 4930N05000W DCT IBERG/N0477F380 N364A TUSKY DCT PLYMM PARCH4
Aircraft B77W/H-SDE1E2E3FGHIJ2J3J4J5M1RWXY/LB1D1

Departure

Time 2026-05-07 07:41
Airport London Heathrow Airport (EGLL)

Arrival

Time N/A
Airport John F. Kennedy International Airport (KJFK)
Time Latitude Longitude Altitude Speed Heading
2026-05-07 07:20 51.47212 -0.46257 88 ft 0 kts 56°
2026-05-07 07:30 51.47210 -0.46260 88 ft 2 kts 57°
2026-05-07 07:30 51.47205 -0.46272 87 ft 2 kts 55°
2026-05-07 07:30 51.47195 -0.46291 87 ft 2 kts 38°
2026-05-07 07:31 51.47183 -0.46304 87 ft 2 kts 24°
2026-05-07 07:31 51.47169 -0.46311 87 ft 2 kts 11°
2026-05-07 07:31 51.47154 -0.46314 86 ft 2 kts 358°
2026-05-07 07:31 51.47139 -0.46311 87 ft 2 kts 344°
2026-05-07 07:32 51.47125 -0.46302 87 ft 2 kts 331°
2026-05-07 07:32 51.47119 -0.46297 87 ft 1 kts 326°
2026-05-07 07:32 51.47118 -0.46296 87 ft 0 kts 326°
2026-05-07 07:34 51.47119 -0.46296 87 ft 0 kts 326°
2026-05-07 07:34 51.47130 -0.46308 87 ft 2 kts 326°
2026-05-07 07:34 51.47154 -0.46334 86 ft 4 kts 326°
2026-05-07 07:35 51.47181 -0.46363 85 ft 4 kts 326°
2026-05-07 07:35 51.47209 -0.46394 85 ft 4 kts 321°
2026-05-07 07:35 51.47224 -0.46426 84 ft 0 kts 296°
2026-05-07 07:35 51.47225 -0.46429 84 ft 0 kts 295°
2026-05-07 07:36 51.47226 -0.46433 84 ft 0 kts 295°
2026-05-07 07:36 51.47227 -0.46436 84 ft 2 kts 294°
2026-05-07 07:36 51.47238 -0.46518 83 ft 9 kts 274°
2026-05-07 07:36 51.47239 -0.46616 83 ft 8 kts 270°
2026-05-07 07:37 51.47238 -0.46710 83 ft 9 kts 270°
2026-05-07 07:37 51.47231 -0.46818 83 ft 9 kts 244°
2026-05-07 07:37 51.47176 -0.46862 83 ft 13 kts 186°
2026-05-07 07:37 51.47035 -0.46866 84 ft 24 kts 180°
2026-05-07 07:38 51.46856 -0.46864 83 ft 22 kts 178°
2026-05-07 07:38 51.46762 -0.46953 83 ft 18 kts 251°
2026-05-07 07:38 51.46746 -0.47198 85 ft 22 kts 270°
2026-05-07 07:38 51.46745 -0.47462 86 ft 22 kts 270°
2026-05-07 07:39 51.46743 -0.47718 86 ft 22 kts 270°
2026-05-07 07:39 51.46742 -0.47977 86 ft 24 kts 270°
2026-05-07 07:39 51.46742 -0.48234 85 ft 23 kts 270°
2026-05-07 07:39 51.46740 -0.48494 83 ft 22 kts 270°
2026-05-07 07:40 51.46726 -0.48689 83 ft 16 kts 236°
2026-05-07 07:40 51.46647 -0.48751 83 ft 13 kts 196°
2026-05-07 07:40 51.46553 -0.48784 83 ft 14 kts 181°
2026-05-07 07:40 51.46485 -0.48669 83 ft 17 kts 98°
2026-05-07 07:41 51.46479 -0.48271 83 ft 75 kts 90°
2026-05-07 07:41 51.46484 -0.46942 93 ft 160 kts 90°
2026-05-07 07:41 51.46484 -0.44896 550 ft 204 kts 91°
2026-05-07 07:41 51.46478 -0.42549 1700 ft 216 kts 89°
2026-05-07 07:42 51.46401 -0.40230 2646 ft 216 kts 104°
2026-05-07 07:42 51.45716 -0.38011 3170 ft 235 kts 131°
2026-05-07 07:42 51.44340 -0.36490 3705 ft 254 kts 162°
2026-05-07 07:42 51.42569 -0.36373 4408 ft 264 kts 197°
2026-05-07 07:43 51.41034 -0.37876 5267 ft 267 kts 230°
2026-05-07 07:43 51.40014 -0.40362 5853 ft 268 kts 251°
2026-05-07 07:43 51.39817 -0.43291 5970 ft 269 kts 276°
2026-05-07 07:43 51.40136 -0.46223 5982 ft 267 kts 282°
2026-05-07 07:44 51.40522 -0.49129 5978 ft 266 kts 282°
2026-05-07 07:44 51.40893 -0.52032 5980 ft 266 kts 281°
2026-05-07 07:44 51.41433 -0.54968 6425 ft 280 kts 290°
2026-05-07 07:44 51.42104 -0.57801 7673 ft 271 kts 292°
2026-05-07 07:45 51.42775 -0.60613 8529 ft 276 kts 291°
2026-05-07 07:45 51.43458 -0.63480 9324 ft 282 kts 292°
2026-05-07 07:45 51.44166 -0.66455 10125 ft 287 kts 291°
2026-05-07 07:45 51.44881 -0.69463 10714 ft 300 kts 291°
2026-05-07 07:46 51.45641 -0.72666 11219 ft 317 kts 291°
2026-05-07 07:46 51.46415 -0.75932 11741 ft 332 kts 290°
2026-05-07 07:46 51.47251 -0.79467 12299 ft 347 kts 290°
2026-05-07 07:46 51.48122 -0.83156 12878 ft 362 kts 290°
2026-05-07 07:47 51.49028 -0.87000 13506 ft 374 kts 290°
2026-05-07 07:47 51.49954 -0.90937 14317 ft 381 kts 290°
2026-05-07 07:47 51.50888 -0.94916 15224 ft 384 kts 290°
2026-05-07 07:47 51.51825 -0.98915 16107 ft 389 kts 290°
2026-05-07 07:48 51.52776 -1.02979 16961 ft 393 kts 290°
2026-05-07 07:48 51.53734 -1.07085 17771 ft 398 kts 290°
2026-05-07 07:48 51.54705 -1.11252 18584 ft 402 kts 290°
2026-05-07 07:48 51.55698 -1.15519 19332 ft 408 kts 290°
2026-05-07 07:49 51.56680 -1.19753 20012 ft 414 kts 290°
2026-05-07 07:49 51.57697 -1.24140 20707 ft 420 kts 290°
2026-05-07 07:49 51.58718 -1.28559 21408 ft 425 kts 290°
2026-05-07 07:49 51.59737 -1.32977 22083 ft 430 kts 290°
2026-05-07 07:50 51.60783 -1.37520 22756 ft 435 kts 290°
2026-05-07 07:50 51.61836 -1.42102 23363 ft 440 kts 290°
2026-05-07 07:50 51.62898 -1.46736 23929 ft 443 kts 290°
2026-05-07 07:50 51.63959 -1.51375 24042 ft 444 kts 290°
2026-05-07 07:51 51.65012 -1.55987 24042 ft 440 kts 290°
2026-05-07 07:51 51.66071 -1.60639 24041 ft 440 kts 290°
2026-05-07 07:51 51.67124 -1.65271 24045 ft 442 kts 290°
2026-05-07 07:51 51.68170 -1.69884 24046 ft 441 kts 289°
2026-05-07 07:52 51.69223 -1.74538 24043 ft 441 kts 289°
2026-05-07 07:52 51.70265 -1.79152 24040 ft 441 kts 289°
2026-05-07 07:52 51.71252 -1.83766 24037 ft 441 kts 285°
2026-05-07 07:52 51.71846 -1.88610 24039 ft 441 kts 277°
2026-05-07 07:53 51.72220 -1.93539 24041 ft 441 kts 276°
2026-05-07 07:53 51.72569 -1.98405 24040 ft 440 kts 276°
2026-05-07 07:53 51.72915 -2.03283 24047 ft 440 kts 276°
2026-05-07 07:53 51.73259 -2.08173 24039 ft 440 kts 276°
2026-05-07 07:54 51.73601 -2.13065 24038 ft 441 kts 276°
2026-05-07 07:54 51.73940 -2.17955 24043 ft 440 kts 276°
2026-05-07 07:54 51.74278 -2.22851 24035 ft 440 kts 276°
2026-05-07 07:54 51.74855 -2.27704 24033 ft 443 kts 286°
2026-05-07 07:55 51.75768 -2.32491 24048 ft 450 kts 288°
2026-05-07 07:55 51.76723 -2.37326 24058 ft 467 kts 288°
2026-05-07 07:55 51.77730 -2.42425 24376 ft 479 kts 288°
2026-05-07 07:55 51.78729 -2.47500 25084 ft 481 kts 288°
2026-05-07 07:56 51.79736 -2.52625 26059 ft 478 kts 288°
2026-05-07 07:56 51.80735 -2.57727 27050 ft 474 kts 288°
2026-05-07 07:56 51.81708 -2.62708 27914 ft 471 kts 288°
2026-05-07 07:56 51.82693 -2.67764 28698 ft 470 kts 287°
2026-05-07 07:57 51.83661 -2.72745 29394 ft 470 kts 287°
2026-05-07 07:57 51.84637 -2.77778 30067 ft 470 kts 287°
2026-05-07 07:57 51.85621 -2.82872 30808 ft 468 kts 288°
2026-05-07 07:57 51.86594 -2.87920 31540 ft 464 kts 288°
2026-05-07 07:58 51.87554 -2.92911 31983 ft 467 kts 288°
2026-05-07 07:58 51.89493 -3.03034 32027 ft 475 kts 288°
2026-05-07 07:59 51.91479 -3.13460 32022 ft 490 kts 288°
2026-05-07 07:59 51.93464 -3.23934 32021 ft 489 kts 288°
2026-05-07 08:00 51.95459 -3.34527 32015 ft 490 kts 287°
2026-05-07 08:00 51.97435 -3.45075 32013 ft 490 kts 288°
2026-05-07 08:01 51.99394 -3.55592 32009 ft 490 kts 288°
2026-05-07 08:01 52.01355 -3.66185 32010 ft 490 kts 287°
2026-05-07 08:02 52.03312 -3.76807 32011 ft 490 kts 287°
2026-05-07 08:02 52.05242 -3.87351 32005 ft 490 kts 287°
2026-05-07 08:03 52.07172 -3.97958 32007 ft 491 kts 287°
2026-05-07 08:03 52.09089 -4.08544 32004 ft 491 kts 286°
2026-05-07 08:04 52.10999 -4.19162 32003 ft 491 kts 286°
2026-05-07 08:04 52.12902 -4.29803 32000 ft 489 kts 286°
2026-05-07 08:05 52.14793 -4.40433 32000 ft 491 kts 286°
2026-05-07 08:05 52.16678 -4.51095 32001 ft 490 kts 286°
2026-05-07 08:06 52.18549 -4.61743 31998 ft 490 kts 286°
2026-05-07 08:06 52.20409 -4.72392 31997 ft 490 kts 285°
2026-05-07 08:07 52.22274 -4.83134 31994 ft 489 kts 285°
2026-05-07 08:07 52.24104 -4.93737 31993 ft 489 kts 285°
2026-05-07 08:08 52.25932 -5.04396 31991 ft 489 kts 285°
2026-05-07 08:08 52.27761 -5.15121 31992 ft 489 kts 285°
2026-05-07 08:09 52.29574 -5.25822 31991 ft 490 kts 285°
2026-05-07 08:09 52.31366 -5.36459 31993 ft 489 kts 285°
2026-05-07 08:10 52.33155 -5.47150 31992 ft 488 kts 285°
2026-05-07 08:10 52.34938 -5.57866 31993 ft 489 kts 285°
2026-05-07 08:11 52.36708 -5.68577 31992 ft 488 kts 284°
2026-05-07 08:11 52.38462 -5.79253 31989 ft 489 kts 284°
2026-05-07 08:12 52.40211 -5.89970 31986 ft 488 kts 284°
2026-05-07 08:12 52.41951 -6.00698 31982 ft 488 kts 284°
2026-05-07 08:13 52.43675 -6.11388 31980 ft 487 kts 284°
2026-05-07 08:13 52.45398 -6.22148 31981 ft 488 kts 284°
2026-05-07 08:14 52.47104 -6.32875 31979 ft 487 kts 284°
2026-05-07 08:14 52.48796 -6.43575 31975 ft 488 kts 283°
2026-05-07 08:15 52.50491 -6.54365 31972 ft 488 kts 283°
2026-05-07 08:15 52.52160 -6.65067 31971 ft 488 kts 283°
2026-05-07 08:16 52.53841 -6.75913 31968 ft 488 kts 282°
2026-05-07 08:16 52.55506 -6.86723 31964 ft 487 kts 282°
2026-05-07 08:17 52.57155 -6.97499 31960 ft 488 kts 282°
2026-05-07 08:17 52.58802 -7.08346 31961 ft 487 kts 282°
2026-05-07 08:18 52.60432 -7.19147 31964 ft 487 kts 282°
2026-05-07 08:18 52.62040 -7.29873 31965 ft 488 kts 282°
2026-05-07 08:19 52.63656 -7.40730 31962 ft 487 kts 282°
2026-05-07 08:19 52.65250 -7.51509 31959 ft 487 kts 282°
2026-05-07 08:20 52.66842 -7.62356 31957 ft 486 kts 282°
2026-05-07 08:20 52.68416 -7.73147 31953 ft 485 kts 281°
2026-05-07 08:21 52.69991 -7.84026 31953 ft 485 kts 281°
2026-05-07 08:21 52.71548 -7.94851 31949 ft 486 kts 281°
2026-05-07 08:22 52.73099 -8.05717 31949 ft 487 kts 281°
2026-05-07 08:22 52.74630 -8.16521 31942 ft 486 kts 281°
2026-05-07 08:23 52.76157 -8.27367 31936 ft 485 kts 281°
2026-05-07 08:23 52.77668 -8.38180 31946 ft 484 kts 281°
2026-05-07 08:24 52.79163 -8.48957 31948 ft 484 kts 281°
2026-05-07 08:24 52.80656 -8.59800 31950 ft 483 kts 281°
2026-05-07 08:25 52.82131 -8.70586 31954 ft 483 kts 280°
2026-05-07 08:25 52.83593 -8.81352 31955 ft 482 kts 280°
2026-05-07 08:26 52.85763 -8.97492 31957 ft 482 kts 280°
2026-05-07 08:26 52.87203 -9.08299 31957 ft 482 kts 280°
2026-05-07 08:27 52.88633 -9.19111 31952 ft 482 kts 280°
2026-05-07 08:27 52.90051 -9.29917 31947 ft 481 kts 280°
2026-05-07 08:28 52.91459 -9.40725 31946 ft 480 kts 280°
2026-05-07 08:28 52.92847 -9.51463 31941 ft 480 kts 280°
2026-05-07 08:29 52.94234 -9.62268 31944 ft 480 kts 280°
2026-05-07 08:29 52.95604 -9.73030 31941 ft 479 kts 279°
2026-05-07 08:30 52.96969 -9.83840 31937 ft 479 kts 279°
2026-05-07 08:30 52.98312 -9.94555 31937 ft 479 kts 279°
2026-05-07 08:31 52.99659 -10.05387 31932 ft 479 kts 279°
2026-05-07 08:31 53.00993 -10.16197 31930 ft 478 kts 279°
2026-05-07 08:32 53.02314 -10.26996 31934 ft 477 kts 279°
2026-05-07 08:32 53.03618 -10.37736 31925 ft 475 kts 279°
2026-05-07 08:33 53.04916 -10.48515 31924 ft 475 kts 279°
2026-05-07 08:33 53.06196 -10.59225 31922 ft 475 kts 279°
2026-05-07 08:34 53.07466 -10.69944 31922 ft 474 kts 278°
2026-05-07 08:34 53.08730 -10.80697 31919 ft 474 kts 278°
2026-05-07 08:35 53.09982 -10.91443 31913 ft 473 kts 278°
2026-05-07 08:35 53.11227 -11.02209 31906 ft 472 kts 278°
2026-05-07 08:36 53.12449 -11.12875 31907 ft 472 kts 278°
2026-05-07 08:36 53.13663 -11.23556 31905 ft 470 kts 278°
2026-05-07 08:37 53.14870 -11.34260 31904 ft 469 kts 278°
2026-05-07 08:37 53.16056 -11.44871 31905 ft 469 kts 278°
2026-05-07 08:38 53.17237 -11.55524 31904 ft 467 kts 278°
2026-05-07 08:38 53.18407 -11.66179 31902 ft 466 kts 277°
2026-05-07 08:39 53.19560 -11.76768 31904 ft 466 kts 277°
2026-05-07 08:39 53.20710 -11.87413 31904 ft 464 kts 277°
2026-05-07 08:40 53.21840 -11.97980 31903 ft 464 kts 277°
2026-05-07 08:40 53.22958 -12.08516 31901 ft 463 kts 277°
2026-05-07 08:41 53.24067 -12.19070 31899 ft 462 kts 277°
2026-05-07 08:41 53.25166 -12.29614 31894 ft 463 kts 277°
2026-05-07 08:42 53.26259 -12.40201 31890 ft 461 kts 277°
2026-05-07 08:42 53.27338 -12.50748 31886 ft 461 kts 277°
2026-05-07 08:43 53.28402 -12.61233 31887 ft 460 kts 277°
2026-05-07 08:43 53.29458 -12.71745 31899 ft 460 kts 276°
2026-05-07 08:44 53.30505 -12.82267 31905 ft 458 kts 276°
2026-05-07 08:44 53.31538 -12.92746 31903 ft 458 kts 276°
2026-05-07 08:45 53.32563 -13.03229 31895 ft 457 kts 276°
2026-05-07 08:45 53.33579 -13.13733 31897 ft 457 kts 276°
2026-05-07 08:46 53.34586 -13.24242 31900 ft 458 kts 276°
2026-05-07 08:46 53.35574 -13.34646 31904 ft 456 kts 276°
2026-05-07 08:47 53.36562 -13.45162 31904 ft 455 kts 276°
2026-05-07 08:47 53.37534 -13.55601 31904 ft 456 kts 276°
2026-05-07 08:48 53.38499 -13.66076 31913 ft 456 kts 275°
2026-05-07 08:48 53.39453 -13.76524 31912 ft 454 kts 275°
2026-05-07 08:49 53.40393 -13.86931 31909 ft 454 kts 275°
2026-05-07 08:49 53.41325 -13.97354 31916 ft 452 kts 275°
2026-05-07 08:50 53.42245 -14.07751 31897 ft 451 kts 275°
2026-05-07 08:50 53.43153 -14.18114 31916 ft 450 kts 275°
2026-05-07 08:51 53.44054 -14.28494 31919 ft 450 kts 275°
2026-05-07 08:51 53.44945 -14.38884 31906 ft 449 kts 275°
2026-05-07 08:52 53.45826 -14.49255 31907 ft 450 kts 275°
2026-05-07 08:52 53.46700 -14.59664 31916 ft 450 kts 275°
2026-05-07 08:53 53.47561 -14.70018 31918 ft 448 kts 274°
2026-05-07 08:53 53.48414 -14.80399 31908 ft 446 kts 274°
2026-05-07 08:54 53.49246 -14.90630 31912 ft 447 kts 274°
2026-05-07 08:54 53.49907 -15.00940 31911 ft 443 kts 269°
2026-05-07 08:55 53.50175 -15.11234 31910 ft 443 kts 269°
2026-05-07 08:55 53.50404 -15.21582 31914 ft 442 kts 269°
2026-05-07 08:56 53.50608 -15.31839 31913 ft 443 kts 269°
2026-05-07 08:56 53.50799 -15.42173 31917 ft 442 kts 269°
2026-05-07 08:57 53.50977 -15.52457 31919 ft 441 kts 269°
2026-05-07 08:57 53.51143 -15.62719 31919 ft 441 kts 269°
2026-05-07 08:58 53.51300 -15.72975 31936 ft 440 kts 268°
2026-05-07 08:58 53.51448 -15.83242 31930 ft 440 kts 268°
2026-05-07 08:59 53.51586 -15.93454 31927 ft 438 kts 268°
2026-05-07 08:59 53.51715 -16.03674 31925 ft 440 kts 268°
2026-05-07 09:00 53.51835 -16.13871 31923 ft 437 kts 268°
2026-05-07 09:00 53.51947 -16.24168 31934 ft 440 kts 268°
2026-05-07 09:01 53.52050 -16.34347 31944 ft 439 kts 268°
2026-05-07 09:01 53.52144 -16.44557 31945 ft 439 kts 268°
2026-05-07 09:02 53.52230 -16.54748 31947 ft 437 kts 268°
2026-05-07 09:02 53.52307 -16.64988 31949 ft 437 kts 268°
2026-05-07 09:03 53.52374 -16.75095 31945 ft 434 kts 267°
2026-05-07 09:03 53.52433 -16.85230 31956 ft 437 kts 267°
2026-05-07 09:04 53.52484 -16.95373 31951 ft 434 kts 267°
2026-05-07 09:04 53.52526 -17.05499 31956 ft 434 kts 267°
2026-05-07 09:05 53.52559 -17.15686 31959 ft 435 kts 267°
2026-05-07 09:05 53.52584 -17.25799 31957 ft 434 kts 267°
2026-05-07 09:06 53.52600 -17.35902 31956 ft 434 kts 267°
2026-05-07 09:06 53.52608 -17.45985 31961 ft 434 kts 267°
2026-05-07 09:07 53.52607 -17.56142 31960 ft 433 kts 267°
2026-05-07 09:07 53.52597 -17.66253 31954 ft 434 kts 267°
2026-05-07 09:08 53.52579 -17.76332 31957 ft 434 kts 267°
2026-05-07 09:08 53.52553 -17.86443 31961 ft 435 kts 267°
2026-05-07 09:09 53.52517 -17.96635 31962 ft 434 kts 267°
2026-05-07 09:09 53.52474 -18.06732 31959 ft 434 kts 267°
2026-05-07 09:10 53.52422 -18.16858 31967 ft 434 kts 267°
2026-05-07 09:10 53.52361 -18.26942 31961 ft 433 kts 267°
2026-05-07 09:11 53.52292 -18.37068 31969 ft 433 kts 267°
2026-05-07 09:11 53.52214 -18.47140 31967 ft 432 kts 267°
2026-05-07 09:12 53.52128 -18.57274 31967 ft 433 kts 267°
2026-05-07 09:12 53.52033 -18.67379 31966 ft 433 kts 266°
2026-05-07 09:13 53.51930 -18.77518 31963 ft 433 kts 266°
2026-05-07 09:13 53.51818 -18.87634 31965 ft 434 kts 266°
2026-05-07 09:14 53.51697 -18.97786 31970 ft 436 kts 267°
2026-05-07 09:14 53.51568 -19.07883 31977 ft 435 kts 267°
2026-05-07 09:15 53.51430 -19.18029 31979 ft 434 kts 267°
2026-05-07 09:15 53.51284 -19.28156 31983 ft 435 kts 267°
2026-05-07 09:16 53.51129 -19.38273 31990 ft 434 kts 267°
2026-05-07 09:16 53.50966 -19.48381 31990 ft 434 kts 267°
2026-05-07 09:17 53.50794 -19.58523 31998 ft 434 kts 267°
2026-05-07 09:17 53.50614 -19.68601 32001 ft 433 kts 266°
2026-05-07 09:18 53.50425 -19.78710 32004 ft 434 kts 266°
2026-05-07 09:18 53.50227 -19.88841 31999 ft 435 kts 266°
2026-05-07 09:19 53.50013 -19.98891 32004 ft 434 kts 265°
2026-05-07 09:19 53.49482 -20.08986 32003 ft 433 kts 263°
2026-05-07 09:20 53.48909 -20.19008 32004 ft 432 kts 264°
2026-05-07 09:20 53.48325 -20.29052 32008 ft 433 kts 263°
2026-05-07 09:21 53.47731 -20.39080 32003 ft 433 kts 264°
2026-05-07 09:21 53.47129 -20.49105 32003 ft 433 kts 264°
2026-05-07 09:22 53.46518 -20.59131 32008 ft 432 kts 264°
2026-05-07 09:22 53.45902 -20.69095 32023 ft 432 kts 263°
2026-05-07 09:23 53.45271 -20.79154 32011 ft 433 kts 263°
2026-05-07 09:23 53.44638 -20.89127 32010 ft 433 kts 263°
2026-05-07 09:24 53.43991 -20.99166 32013 ft 433 kts 263°
2026-05-07 09:24 53.43335 -21.09214 32021 ft 434 kts 263°
2026-05-07 09:25 53.42674 -21.19217 32022 ft 433 kts 263°
2026-05-07 09:25 53.42000 -21.29283 32025 ft 434 kts 263°
2026-05-07 09:26 53.41322 -21.39277 32017 ft 434 kts 263°
2026-05-07 09:26 53.40635 -21.49288 32027 ft 434 kts 263°
2026-05-07 09:27 53.39940 -21.59279 32024 ft 433 kts 264°
2026-05-07 09:28 53.38874 -21.74373 32034 ft 434 kts 263°
2026-05-07 09:28 53.38155 -21.84398 32030 ft 434 kts 263°
2026-05-07 09:29 53.37431 -21.94388 32034 ft 435 kts 263°
2026-05-07 09:29 53.36691 -22.04453 32042 ft 434 kts 263°
2026-05-07 09:30 53.35944 -22.14513 32032 ft 435 kts 263°
2026-05-07 09:30 53.35188 -22.24570 32034 ft 435 kts 263°
2026-05-07 09:31 53.34426 -22.34597 32033 ft 435 kts 263°
2026-05-07 09:31 53.33657 -22.44598 32037 ft 436 kts 263°
2026-05-07 09:32 53.32880 -22.54597 32043 ft 436 kts 264°
2026-05-07 09:32 53.32092 -22.64616 32036 ft 436 kts 264°
2026-05-07 09:33 53.31292 -22.74680 32044 ft 436 kts 263°
2026-05-07 09:33 53.30486 -22.84717 32039 ft 436 kts 263°
2026-05-07 09:34 53.29672 -22.94734 32030 ft 436 kts 263°
2026-05-07 09:34 53.28845 -23.04807 32034 ft 436 kts 263°
2026-05-07 09:35 53.28011 -23.14864 32045 ft 437 kts 263°
2026-05-07 09:35 53.27169 -23.24907 32046 ft 437 kts 263°
2026-05-07 09:36 53.26319 -23.34937 32030 ft 437 kts 263°
2026-05-07 09:36 53.25459 -23.44979 32040 ft 437 kts 264°
2026-05-07 09:37 53.24589 -23.55048 32040 ft 438 kts 264°
2026-05-07 09:37 53.23708 -23.65140 32049 ft 439 kts 263°
2026-05-07 09:38 53.22819 -23.75204 32054 ft 440 kts 263°
2026-05-07 09:38 53.21926 -23.85236 32052 ft 440 kts 263°
2026-05-07 09:39 53.21017 -23.95334 32057 ft 440 kts 263°
2026-05-07 09:39 53.20103 -24.05386 32056 ft 439 kts 263°
2026-05-07 09:40 53.19179 -24.15464 32059 ft 440 kts 263°
2026-05-07 09:40 53.18246 -24.25538 32062 ft 440 kts 264°
2026-05-07 09:41 53.17304 -24.35608 32053 ft 441 kts 264°
2026-05-07 09:41 53.16348 -24.45734 32055 ft 442 kts 264°
2026-05-07 09:42 53.15385 -24.55843 32056 ft 442 kts 264°
2026-05-07 09:42 53.14414 -24.65939 32054 ft 442 kts 263°
2026-05-07 09:43 53.13435 -24.76025 32058 ft 444 kts 264°
2026-05-07 09:43 53.12439 -24.86189 32054 ft 443 kts 264°
2026-05-07 09:44 53.11445 -24.96256 32057 ft 444 kts 264°
2026-05-07 09:44 53.10434 -25.06384 32065 ft 444 kts 264°
2026-05-07 09:45 53.09419 -25.16473 32069 ft 444 kts 264°
2026-05-07 09:45 53.08394 -25.26562 32070 ft 445 kts 264°
2026-05-07 09:46 53.07351 -25.36746 32075 ft 445 kts 264°
2026-05-07 09:46 53.06312 -25.46797 32077 ft 445 kts 265°